Regional Weather Roundup
Issued by NWS

Home | Current Version | Previous Version | Graphics & Text | Print | Product List | Glossary On
Versions: 1 2 3 4 5 6 7 8 9 10 11 12 13 14 15 16 17 18 19 20 21 22 23 24 25 26 27 28 29 30 31 32 33 34 35 36 37 38 39 40 41 42 43 44 45 46 47 48 49 50
000
ASUS43 KMKX 120159
RWRWI

WISCONSIN REGIONAL WEATHER ROUNDUP
NATIONAL WEATHER SERVICE MILWAUKEE/SULLIVAN WI
800 PM CST MON DEC 11 2017

NOTE: "FAIR" INDICATES FEW OR NO CLOUDS BELOW 12,000 FEET WITH NO
SIGNIFICANT WEATHER AND/OR OBSTRUCTIONS TO VISIBILITY.

WIZ001-002-006>008-014>016-023>028-120300-
NORTHWEST WISCONSIN

CITY           SKY/WX    TMP DP  RH WIND       PRES   REMARKS
SUPERIOR ARPT  PTCLDY    17   8  67 N14       30.14R WCI   3
ASHLAND        CLOUDY    17   8  67 NW13      30.08R WCI   4
HAYWARD        PTCLDY    17   7  64 VRB7      30.06R WCI   8
SIREN          CLEAR     18   8  64 N6        30.12R WCI  10
CUMBERLAND     CLEAR     18   9  68 N14       30.06R WCI   4
RICE LAKE      CLEAR     19  10  67 NW10G17   30.10R WCI   7
CHETEK         MOCLDY    20  11  68 N8G18     30.06R WCI  10
LADYSMITH      CLOUDY    20  11  67 NW20G29   30.04R WCI   4
EAU CLAIRE     CLEAR     21  10  62 N12G25    30.06R WCI   9
MENOMONIE      CLEAR     22  11  63 NW14      30.08R WCI   9
NEW RICHMOND   CLEAR     20  10  66 NW17G24   30.12R WCI   5
OSCEOLA        CLEAR     21  11  64 NW16G22   30.16R WCI   7
$$

WIZ003>005-009-010-017-018-120300-
NORTH CENTRAL WISCONSIN

CITY           SKY/WX    TMP DP  RH WIND       PRES   REMARKS
MANITOWISH WTR LGT SNOW  16  12  84 N14G23    29.92R WCI   1
ARBOR VITAE    CLOUDY    19  14  80 N22G28    29.90R HAZE    WCI   3
WOODRUFF       CLOUDY    19  14  80 N22G28    29.90R HAZE    WCI   3
RHINELANDER    CLOUDY    18  10  71 NW9G18    29.90R WCI   7
EAGLE RIVER    LGT SNOW  17  10  75 N16G24    29.88R WCI   1
LAND O LAKES   CLOUDY    17   9  72 N23G30    29.90R HAZE    WCI  -1
PHILLIPS       LGT SNOW  17  10  77 N10G18    29.97R WCI   4
TOMAHAWK       LGT SNOW  18  12  78 NW10G20   29.94R WCI   6
MEDFORD        CLOUDY    19   9  64 N29G35    29.93R WCI   0
MERRILL        LGT SNOW  20  16  86 N12G22    29.93R WCI   7
$$

WIZ029-030-035-036-043>047-120300-
CENTRAL WISCONSIN

CITY           SKY/WX    TMP DP  RH WIND       PRES   REMARKS
WAUSAU         LGT SNOW  21  14  74 NW13G21   29.91R WCI   9
MOSINEE        NOT AVBL
MARSHFIELD     MOCLDY    21  10  62 N18G26    29.94R WCI   6
STEVENS POINT  CLOUDY    23  11  62 N20G25    29.91R WCI   8
WAUPACA        CLOUDY    28  13  53 NW22G30   29.90R WCI  14
WAUTOMA        FLURRIES  28  19  69 NW18G31   29.90R WCI  15
WISC RAPIDS    CLOUDY    25  16  68 N16G35    29.95R WCI  12
CAMP DOUGLAS   NOT AVBL
$$

WIZ011>013-019>022-031-037>040-048>050-120300-
NORTHEAST WISCONSIN

CITY           SKY/WX    TMP DP  RH WIND       PRES   REMARKS
ANTIGO         LGT SNOW  19  16  88 NW20G25   29.86R WCI   2
SHAWANO        CLOUDY    27  15  59 N16G23    29.87R WCI  15
OCONTO         CLOUDY    26  15  64 N14G24    29.85R WCI  14
STURGEON BAY   FLURRIES  25  16  68 N31G44    29.81R WCI   8
GREEN BAY      FLURRIES  28  19  69 NW21G30   29.85R WCI  15
MANITOWOC      CLOUDY    28  23  81 NW13      29.83R WCI  17
APPLETON       CLOUDY    28  18  64 NW24G31   29.83R WCI  14
CLINTONVILLE   CLOUDY    27  12  54 NW16G31   29.88R WCI  14
OSHKOSH        CLOUDY    30  20  66 NW20G26   29.85R WCI  17
$$

WIZ032>034-041-042-053>061-120300-
SOUTHWEST WISCONSIN

CITY           SKY/WX    TMP DP  RH WIND       PRES   REMARKS
LA CROSSE      MOCLDY    28  15  58 N24G39    30.03R WCI  14
SPARTA         CLOUDY    29  19  68 NW18G26   29.99R WCI  16
VIROQUA        CLOUDY    29  22  75 NW21G30   29.94R WCI  16
BOSCOBEL       CLOUDY    33  22  63 N9G18     29.97R WCI  25
PRAIRIE DU CHI CLOUDY    33  23  66 NW16G23   29.97R WCI  23
PLATTEVILLE    CLOUDY    32  28  85 N18G28    29.90R WCI  20
$$

WIZ056-057-062-063-064-067-068-120300-
SOUTH CENTRAL WISCONSIN

CITY           SKY/WX    TMP DP  RH WIND       PRES   REMARKS
REEDSBURG      CLOUDY    30  20  65 NW20      29.92R WCI  18
BARABOO/DELLS  CLOUDY    30  22  71 NW13G23   29.89R WCI  20
LONE ROCK      NOT AVBL
MINERAL POINT  CLOUDY    32  28  86 N23G31    29.89R WCI  19
MADISON        CLOUDY    30  23  75 N17G26    29.88R WCI  18
MIDDLETON      CLOUDY    32  26  77 N17       29.88R WCI  21
WATERTOWN      CLOUDY    30  26  86 NW15G25   29.84R WCI  19
MONROE         CLOUDY    32  27  80 NW12G24   29.84R WCI  23
JANESVILLE     CLOUDY    34  28  80 NW18G25   29.84R WCI  23
$$

WIZ051-052-058>065-066-070>072-120300-
SOUTHEAST WISCONSIN

CITY           SKY/WX    TMP DP  RH WIND       PRES   REMARKS
MILWAUKEE      CLOUDY    32  25  75 NW17G32   29.82R WCI  21
WAUKESHA       CLOUDY    28  23  80 NW16G25   29.83R WCI  17
MILWAUKEE/TIMM CLOUDY    30  21  69 N16G26    29.83R WCI  19
RACINE         CLOUDY    32  25  75 N18G25    29.82R WCI  20
BURLINGTON     CLOUDY    42  40  93 NW14G20   29.81R
KENOSHA        CLOUDY    32  25  75 NW17G25   29.80R WCI  21
FOND DU LAC    CLOUDY    30  21  69 NW17G24   29.85R WCI  18
SHEBOYGAN      CLOUDY    28  23  81 NW13      29.82R WCI  17
WEST BEND      CLOUDY    28  25  86 NW16G24   29.82R WCI  17
JUNEAU         CLOUDY    28  23  81 NW9G18    29.85R WCI  20
$$

LSZ147-162-120300-
LAKE SUPERIOR

STATION/POSITION TIME  TEMP    WIND        PRES    WAVE
                       AIR SEA DIR/SP/G            HT/PER
                 (UTC) (F)     (DEG/KT/KT) (MB)    (FT/S)
DEVILS ISLAND    0100   18     330/ 20/ 23 1019.6R
SAXON HARBOR     0140   22                 1017.6R
$$

LMZ867-665-643>646-120300-
LAKE MICHIGAN

STATION/POSITION TIME  TEMP    WIND        PRES    WAVE
                       AIR SEA DIR/SP/G            HT/PER
                 (UTC) (F)     (DEG/KT/KT) (MB)    (FT/S)
NORTHPORT PIER   0140   28     330/ 35/ 40 1009.1R
KEWAUNEE LAKESHO 0130   28     310/  7/ 12 1008.4R
SHEBOYGAN LAKESH 0100   29     320/ 13/ 19 1010.0R
PORT WASHINGTON  0140   30     320/  9/ 18 1011.2R
MILWAUKEE LAKESH 0130   32     330/ 16/ 19   N/A
KENOSHA   LAKESH 0100   32     310/ 10/ 12 1008.5
$$

TC  - TEMPERATURE IN CELSIUS
VSB - VISIBILITY IN STATUTE MILES
WCI - WIND CHILL INDEX
HX  - HEAT INDEX





USA.gov is the U.S. government's official web portal to all federal, state and local government web resources and services.